Find WHDW 22-05

NORAD ID: 69576 Int'l Des: 2026-137 Owner: ZXW Country: CN Constellation: xingwang operational
LEOCIRCULAR

当前视图

正在加载3D地球...

About WHDW 22-05

WHDW 22-05 (NORAD 69576) is a xingwang constellation satellite launched Jun 17, 2026 by ZXW of CN. It operates in LEO, CIRCULAR orbit with a mass of 800.00 kg.

关于 WHDW 22-05

正在加载描述...

即将过境

Passes for default location (London). Set your location on the main map for personalized predictions.

高度历史

Loading altitude history...

两行轨道根数

1 69576U 26137E 26169.59426003 -.00000117 00000-0 22982-4 0 9992
2 69576 50.0055 249.8116 0010950 233.1188 126.8708 13.92446015 223
Epoch: Jun 18, 2026 • Age: 5 hours

当前状态

高度 927.6 km
速度 7.39 km/s
星下点 21.96°N, 68.01°E
发射日期 Jun 17, 2026
运行时间 1 day
类型 other

技术详情

分类 Payload
质量 800.00 kg
干质量 800.00 kg
总质量 800.00 kg
长度 3.00 m
直径 1.00 m
跨度 10.00 m
形状 Box + 2 Pan
制造商 YINNT
平台类型 Xingwang Y
阶段状态 In Orbit
所有者/国家 ZXW/CN

Most Searched